Total_Precipitation_Accumulation
0.00 0.00 0.00 0.00 0.00 0.00 0.00 0.00 0.00 0.00 0.00 0.00 0.00 0.00 0.00 0.00 0.00 0.00 0.00 0.00 0.00 0.00 0.00 0.00 0.00 0.00 0.00 0.00 0.00 0.00 0.01 0.01 0.00 0.01 0.01 0.02 0.03 0.05 0.16 0.16 0.19 0.14 0.20 0.14 0.11 0.26 1.06 1.62 1.04 1.50 1.47 1.41 1.31 0.73 1.04 1.08 1.01 0.70 1.23 0.53 0.86 0.91 0.99 1.10 1.33 1.01 0.55 0.22 0.26 0.18 0.36 0.47 0.20 0.21 0.53 0.49 0.59 0.72 0.68 0.45 0.43 0.40 0.39 0.52 1.28 1.10
0.00 0.00 0.00 0.00 0.00 0.00 0.00 0.00 0.00 0.00 0.00 0.00 0.00 0.00 0.00 0.00 0.00 0.00 0.00 0.00 0.00 0.00 0.00 0.00 0.00 0.00 0.00 0.00 0.00 0.00 0.00 0.01 0.01 0.01 0.01 0.01 0.02 0.04 0.03 0.15 0.11 0.14 0.20 0.20 0.30 0.74 1.36 1.08 1.20 1.86 1.46 0.72 0.62 1.38 1.22 1.19 1.07 1.35 0.98 0.79 1.06 0.76 0.68 0.72 1.02 0.87 0.17 0.33 0.16 0.32 0.34 0.67 0.75 0.85 1.02 0.45 0.66 0.55 0.85 0.77 1.03 0.87 1.02 0.85 0.36 0.87
0.00 0.00 0.00 0.00 0.00 0.00 0.00 0.00 0.00 0.00 0.00 0.00 0.00 0.00 0.00 0.00 0.00 0.00 0.00 0.00 0.00 0.00 0.00 0.00 0.00 0.00 0.00 0.00 0.01 0.00 0.01 0.03 0.04 0.04 0.05 0.04 0.04 0.06 0.10 0.20 0.35 0.12 0.11 0.10 0.12 0.30 0.64 1.26 1.38 1.44 1.29 0.75 0.98 1.47 1.06 1.30 1.06 0.77 1.00 1.19 1.31 0.85 0.76 0.48 1.14 0.82 0.91 0.90 1.24 1.27 1.10 0.85 1.36 1.10 1.24 1.17 1.62 1.72 1.09 1.11 1.07 0.71 0.52 0.49 0.73 0.54
0.00 0.00 0.00 0.00 0.00 0.00 0.00 0.00 0.00 0.00 0.00 0.00 0.00 0.00 0.00 0.00 0.00 0.02 0.00 0.00 0.00 0.00 0.00 0.00 0.01 0.00 0.00 0.00 0.01 0.02 0.01 0.01 0.02 0.04 0.04 0.03 0.03 0.04 0.08 0.15 0.06 0.06 0.05 0.11 0.13 0.12 0.26 0.79 0.78 0.55 0.81 1.04 1.19 0.96 1.92 1.19 1.51 1.33 1.37 1.04 0.82 0.76 0.50 0.44 0.74 0.53 0.74 1.24 2.36 0.99 1.29 1.45 1.11 0.73 0.89 1.54 1.42 1.15 1.51 0.89 0.73 0.57 0.50 0.61 0.55 0.46
0.00 0.00 0.00 0.00 0.00 0.00 0.00 0.00 0.00 0.00 0.00 0.00 0.00 0.00 0.00 0.00 0.00 0.00 0.03 0.00 0.00 0.00 0.00 0.00 0.01 0.01 0.00 0.01 0.00 0.01 0.00 0.00 0.01 0.03 0.01 0.02 0.02 0.02 0.09 0.17 0.06 0.05 0.07 0.12 0.11 0.12 0.26 0.82 0.83 0.82 1.26 1.51 1.45 1.72 1.78 1.93 1.87 2.13 1.27 0.77 0.53 0.47 0.30 0.44 0.29 0.51 0.67 0.92 0.99 0.92 0.82 1.23 1.76 1.27 1.53 1.24 2.15 1.05 0.72 0.98 0.94 0.31 0.36 0.54 0.54 0.58
0.00 0.00 0.00 0.00 0.00 0.00 0.00 0.00 0.00 0.00 0.00 0.00 0.00 0.00 0.00 0.00 0.00 0.00 0.00 0.00 0.00 0.01 0.00 0.00 0.00 0.03 0.02 0.01 0.02 0.01 0.01 0.02 0.04 0.01 0.02 0.02 0.01 0.01 0.05 0.04 0.06 0.06 0.09 0.12 0.09 0.11 0.34 0.58 0.69 1.33 1.93 1.68 1.72 1.64 1.84 1.99 2.34 1.64 1.20 0.78 0.54 0.29 0.23 0.17 0.34 0.45 1.16 0.81 0.68 0.68 0.64 0.70 0.87 0.92 0.85 0.41 0.71 0.61 0.86 0.28 0.21 0.35 0.33 0.47 0.35 0.23
0.01 0.00 0.00 0.00 0.00 0.00 0.00 0.00 0.00 0.00 0.00 0.00 0.01 0.00 0.00 0.00 0.00 0.00 0.00 0.00 0.01 0.01 0.05 0.00 0.01 0.03 0.01 0.03 0.01 0.02 0.01 0.03 0.04 0.02 0.03 0.02 0.01 0.01 0.05 0.14 0.09 0.09 0.07 0.14 0.22 0.15 0.53 1.21 1.14 1.74 1.90 1.48 1.63 1.11 1.86 2.30 2.69 1.75 1.13 0.76 0.44 0.19 0.21 0.25 0.36 0.42 1.11 0.82 0.80 0.41 0.46 0.52 0.92 0.56 0.69 0.83 0.81 0.65 0.65 0.40 0.19 0.23 0.55 0.58 0.43 0.35
0.00 0.00 0.00 0.00 0.00 0.00 0.00 0.00 0.00 0.00 0.00 0.01 0.01 0.00 0.00 0.00 0.00 0.00 0.00 0.00 0.02 0.00 0.01 0.00 0.00 0.09 0.03 0.01 0.01 0.01 0.01 0.02 0.03 0.03 0.02 0.03 0.03 0.06 0.12 0.58 0.14 0.06 0.05 0.09 0.14 0.17 0.55 1.05 1.04 1.73 1.08 2.10 1.65 1.95 2.32 2.63 2.67 1.98 1.26 0.73 0.40 0.26 0.23 0.27 0.17 0.40 0.50 0.66 0.91 0.78 0.78 0.56 0.52 0.66 0.63 0.89 0.59 0.39 0.96 0.32 0.37 0.37 0.37 0.31 0.26 0.30
0.00 0.00 0.00 0.00 0.00 0.00 0.00 0.00 0.00 0.00 0.00 0.00 0.00 0.00 0.00 0.00 0.00 0.00 0.01 0.01 0.02 0.01 0.04 0.00 0.00 0.01 0.04 0.10 0.02 0.02 0.01 0.01 0.06 0.06 0.07 0.04 0.04 0.05 0.18 0.10 0.08 0.07 0.07 0.11 0.15 0.60 2.31 1.19 0.66 1.30 2.65 2.11 2.64 2.18 2.75 2.79 2.06 2.14 1.49 1.08 0.85 0.77 0.46 0.42 0.55 0.76 0.95 0.68 0.71 0.80 0.76 0.41 0.56 0.58 0.57 0.55 0.62 0.57 0.38 0.40 0.31 0.65 0.71 0.63 0.42 0.45
0.00 0.00 0.00 0.00 0.00 0.00 0.00 0.00 0.00 0.00 0.00 0.00 0.00 0.00 0.00 0.00 0.00 0.00 0.02 0.00 0.09 0.01 0.02 0.04 0.08 0.02 0.15 0.03 0.10 0.03 0.02 0.07 0.11 0.10 0.15 0.14 0.13 0.17 0.14 0.12 0.07 0.08 0.09 0.25 0.41 0.55 0.65 0.60 1.00 1.40 1.74 2.87 2.45 2.74 2.73 1.75 1.98 2.13 1.52 1.18 0.60 0.42 0.95 1.11 1.21 1.42 1.37 1.05 1.30 1.07 1.33 0.51 0.48 0.32 0.59 0.54 0.36 0.29 0.25 0.27 0.48 0.63 0.79 0.29 0.39 0.66
0.01 0.00 0.00 0.00 0.00 0.00 0.00 0.00 0.00 0.00 0.00 0.00 0.00 0.00 0.00 0.00 0.00 0.01 0.01 0.01 0.05 0.01 0.01 0.01 0.05 0.00 0.10 0.09 0.06 0.05 0.09 0.11 0.09 0.10 0.13 0.09 0.11 0.09 0.26 0.12 0.09 0.11 0.11 0.15 0.19 0.33 0.44 0.94 1.04 1.02 0.88 1.41 1.71 2.15 1.29 1.66 1.81 1.16 1.26 0.93 0.84 0.66 0.88 1.47 1.68 1.25 0.91 1.26 1.69 1.39 0.90 0.79 0.27 0.22 0.20 0.37 0.20 0.12 0.14 0.25 0.31 0.75 0.24 0.48 0.50 0.53
0.00 0.00 0.00 0.00 0.00 0.00 0.00 0.00 0.00 0.00 0.00 0.00 0.00 0.01 0.00 0.03 0.02 0.02 0.02 0.02 0.07 0.00 0.02 0.02 0.01 0.03 0.10 0.25 0.31 0.14 0.12 0.09 0.10 0.08 0.11 0.11 0.09 0.10 0.11 0.11 0.09 0.11 0.11 0.20 0.25 0.26 0.35 0.85 0.60 0.36 0.58 1.23 2.17 1.86 1.30 1.34 1.96 1.48 1.27 1.04 0.90 0.80 1.10 1.40 1.40 1.04 1.94 1.77 1.21 1.09 0.68 0.65 0.51 0.17 0.14 0.07 0.08 0.08 0.09 0.16 0.15 0.48 1.00 1.18 0.67 0.52
0.00 0.00 0.00 0.00 0.00 0.00 0.00 0.00 0.00 0.00 0.00 0.00 0.00 0.01 0.17 0.18 0.01 0.08 0.03 0.02 0.00 0.01 0.04 0.00 0.00 0.03 0.01 0.08 0.30 0.10 0.07 0.06 0.06 0.07 0.12 0.09 0.07 0.05 0.13 0.08 0.12 0.11 0.14 0.15 0.37 0.33 0.48 0.42 0.39 0.16 0.45 1.16 2.25 1.05 1.32 2.49 2.58 1.51 2.08 1.82 1.13 0.89 0.89 0.90 2.04 2.16 2.16 1.58 1.51 1.15 0.53 0.35 0.25 0.28 0.11 0.11 0.11 0.10 0.12 0.16 0.22 0.37 0.59 0.86 0.58 0.18
0.02 0.00 0.00 0.00 0.00 0.00 0.00 0.00 0.01 0.01 0.00 0.00 0.01 0.09 0.05 0.12 0.05 0.02 0.07 0.02 0.06 0.02 0.01 0.02 0.03 0.05 0.44 0.36 0.21 0.13 0.13 0.11 0.07 0.09 0.07 0.06 0.09 0.10 0.11 0.10 0.13 0.14 0.16 0.15 0.34 0.37 0.73 0.58 0.53 0.35 0.52 0.90 1.29 1.25 1.65 2.49 2.52 2.17 2.04 1.61 0.90 0.86 0.81 1.76 2.47 2.33 2.10 1.61 1.85 1.07 0.78 0.31 0.27 0.28 0.23 0.47 0.14 0.16 0.20 0.43 0.55 0.35 0.99 0.90 0.37 0.40
0.02 0.14 0.00 0.00 0.01 0.00 0.00 0.00 0.00 0.04 0.00 0.00 0.00 0.01 0.07 0.09 0.05 0.02 0.05 0.08 0.02 0.12 0.05 0.01 0.01 0.09 0.15 1.46 0.14 0.11 0.11 0.02 0.03 0.08 0.03 0.03 0.06 0.10 0.17 0.08 0.12 0.41 0.22 0.14 0.39 0.26 0.74 1.31 0.96 0.99 0.90 1.18 1.44 1.25 2.26 2.39 1.59 2.36 1.50 1.93 1.39 1.60 1.29 1.72 2.34 1.97 2.78 1.76 0.98 0.50 0.50 0.65 0.40 0.45 0.53 0.40 0.25 0.34 0.42 0.44 0.57 0.66 0.69 0.53 0.53 0.71
0.01 0.08 0.01 0.00 0.00 0.00 0.00 0.00 0.00 0.00 0.02 0.00 0.01 0.01 0.04 0.04 0.01 0.07 0.22 0.03 0.13 0.07 0.03 0.06 0.03 0.20 0.66 1.18 0.44 0.14 0.05 0.05 0.04 0.02 0.05 0.05 0.05 0.10 0.19 0.26 0.23 0.38 0.52 0.54 0.66 1.18 1.08 1.06 0.90 0.81 1.21 1.63 1.55 2.24 1.65 1.59 1.26 2.00 1.66 2.27 2.59 2.18 2.78 2.71 1.80 2.33 2.72 0.82 0.45 0.55 0.47 0.38 0.33 0.28 0.33 0.32 0.26 0.19 0.24 0.28 0.75 0.40 0.69 1.14 0.66 0.98
0.00 0.10 0.01 0.01 0.00 0.00 0.00 0.00 0.00 0.00 0.23 0.07 0.00 0.05 0.01 0.01 0.01 0.01 0.00 0.00 0.00 0.00 0.06 0.01 0.07 0.35 0.23 0.86 0.33 0.45 0.17 0.10 0.05 0.04 0.06 0.07 0.06 0.18 0.28 0.23 0.35 0.48 1.01 1.42 1.60 1.34 0.89 0.84 1.26 1.02 0.92 0.63 0.39 0.76 1.05 1.43 1.60 2.70 2.21 1.22 1.41 1.99 4.00 3.28 3.75 3.21 0.62 0.82 0.27 0.26 0.39 0.30 0.41 0.25 0.18 0.22 0.18 0.22 0.47 0.50 0.44 0.47 0.92 1.54 1.16 0.88
0.11 0.22 0.01 0.01 0.00 0.00 0.00 0.00 0.00 0.00 0.00 0.00 0.03 0.04 0.00 0.00 0.03 0.02 0.09 0.08 0.01 0.01 0.05 0.02 0.05 0.32 0.21 0.50 0.37 0.28 0.20 0.20 0.16 0.09 0.06 0.14 0.21 0.29 0.49 0.77 0.90 1.01 1.42 1.19 1.49 1.76 1.37 1.09 0.77 0.51 0.56 0.50 0.53 0.56 1.59 1.58 2.23 1.54 1.22 1.33 3.07 3.95 4.84 4.40 3.32 1.94 1.49 0.72 0.65 0.84 0.75 0.69 0.68 0.44 0.48 0.41 0.21 0.29 0.38 0.50 0.89 0.52 0.78 1.26 1.10 0.96
0.00 0.13 0.05 0.00 0.00 0.01 0.00 0.00 0.00 0.00 0.00 0.00 0.06 0.02 0.01 0.08 0.05 0.02 0.00 0.03 0.03 0.04 0.07 0.04 0.24 0.13 0.16 0.66 0.26 0.28 0.17 0.35 0.38 0.26 0.26 0.21 0.38 0.77 0.57 0.78 1.11 1.57 1.62 1.82 1.75 1.49 1.04 0.68 0.74 0.68 0.52 0.82 0.79 1.21 1.06 0.91 1.00 0.81 0.71 1.73 2.34 2.71 2.09 2.70 2.93 2.07 1.39 1.05 1.23 1.00 1.35 0.78 0.47 0.41 0.36 0.40 0.24 0.47 0.58 0.47 1.00 1.12 1.31 1.15 0.90 0.93
0.00 0.05 0.07 0.00 0.00 0.02 0.00 0.00 0.01 0.01 0.00 0.00 0.00 0.00 0.00 0.00 0.13 0.06 0.01 0.08 0.01 0.17 0.03 0.13 0.07 0.22 0.46 0.56 0.17 0.19 0.19 0.24 0.19 0.24 0.38 0.69 0.63 0.92 1.04 1.09 1.17 1.13 1.06 1.12 1.01 1.82 1.59 0.96 0.75 0.69 0.67 1.01 0.80 1.07 0.80 0.75 0.84 1.08 0.84 1.34 2.55 2.94 2.19 3.07 2.38 1.92 1.93 1.58 1.01 0.87 0.57 0.54 0.43 0.19 0.57 0.69 0.64 0.16 0.63 0.63 0.92 0.85 0.89 1.00 0.67 0.66
0.05 0.00 0.13 0.08 0.00 0.00 0.04 0.00 0.02 0.00 0.04 0.00 0.00 0.00 0.00 0.01 0.04 0.00 0.07 0.03 0.07 0.08 0.16 0.13 0.16 0.51 0.50 0.09 0.19 0.23 0.17 0.32 0.28 0.24 0.25 0.51 0.84 0.53 0.85 1.16 1.22 1.12 1.02 0.96 1.24 1.67 1.71 0.95 0.54 0.67 0.78 0.70 0.60 0.83 0.59 0.95 0.69 0.58 0.36 0.96 1.83 2.22 1.60 1.74 2.71 1.70 1.47 1.16 0.94 0.38 0.35 0.26 0.28 0.18 0.14 0.68 0.95 1.07 1.56 1.26 0.80 0.68 0.63 0.67 0.60 0.53
0.01 0.00 0.04 0.12 0.04 0.02 0.01 0.00 0.00 0.00 0.02 0.01 0.00 0.03 0.01 0.05 0.11 0.09 0.05 0.00 0.08 0.04 0.12 0.12 0.19 0.34 0.58 0.17 0.24 0.47 0.63 0.37 0.54 0.36 0.39 0.74 0.25 0.50 0.60 0.86 0.54 0.69 0.84 1.30 1.49 1.17 1.52 1.72 2.17 1.66 1.03 1.39 1.87 1.95 1.51 0.80 0.35 0.32 0.37 0.80 0.84 0.52 0.71 0.51 0.58 0.83 0.96 0.91 0.90 0.23 0.42 0.56 0.41 0.57 0.27 0.48 1.12 1.70 0.85 0.30 0.37 0.38 0.43 0.43 0.44 0.36
0.02 0.05 0.09 0.06 0.17 0.37 0.09 0.04 0.01 0.01 0.01 0.01 0.00 0.02 0.01 0.02 0.01 0.11 0.08 0.19 0.05 0.10 0.04 0.18 0.15 0.48 0.34 0.30 0.27 0.15 0.42 0.36 0.53 0.56 0.66 0.73 0.71 0.94 1.19 1.34 0.83 0.58 0.43 0.48 0.52 0.83 1.84 2.53 2.12 1.89 1.25 1.34 0.78 0.78 0.86 0.70 0.62 0.65 0.75 1.13 1.30 0.70 0.33 0.17 0.15 0.35 0.44 0.48 0.37 0.35 0.50 0.51 0.44 0.32 0.19 0.57 0.56 0.52 0.47 0.53 0.60 0.52 0.49 0.41 0.39 0.34
0.00 0.00 0.03 0.06 0.06 0.08 0.01 0.00 0.01 0.00 0.00 0.00 0.00 0.00 0.01 0.07 0.05 0.05 0.12 0.21 0.14 0.16 0.10 0.13 0.06 0.65 0.34 0.40 0.27 0.48 0.88 0.62 0.40 0.56 0.76 0.52 0.65 0.75 0.90 0.58 0.91 0.36 0.58 0.74 0.48 0.89 0.92 0.89 0.77 1.22 1.29 1.39 1.18 0.94 0.78 0.47 0.63 0.89 1.13 0.91 0.88 1.03 0.63 0.37 0.34 0.73 0.81 0.53 0.47 0.72 0.97 0.66 0.53 0.50 0.17 0.55 0.69 0.99 0.43 0.32 0.53 0.57 0.55 0.41 0.46 0.26
0.15 0.03 0.07 0.17 0.17 0.25 0.22 0.09 0.04 0.02 0.00 0.01 0.06 0.03 0.01 0.07 0.04 0.09 0.04 0.06 0.03 0.06 0.19 0.10 0.23 0.70 0.84 0.25 0.19 0.42 0.19 0.29 1.58 1.25 1.30 0.65 0.28 0.84 0.83 1.09 1.10 0.67 0.66 0.27 0.16 0.29 0.34 0.55 0.60 1.05 0.86 0.86 0.65 1.29 1.60 1.46 1.44 1.30 1.18 0.56 0.59 0.88 0.54 0.29 0.44 0.32 0.33 1.31 1.53 1.01 0.67 0.67 0.80 0.63 0.60 0.85 1.30 0.78 0.80 0.49 0.50 0.74 0.73 0.47 0.66 0.56
0.12 0.34 0.07 0.13 0.37 0.44 0.39 0.47 0.53 0.23 0.12 0.04 0.01 0.03 0.03 0.02 0.13 0.14 0.05 0.05 0.04 0.01 0.04 0.09 0.17 0.27 0.35 0.26 0.37 0.37 0.38 0.42 0.45 0.47 0.49 0.74 0.96 0.28 0.45 0.52 0.36 0.73 0.50 0.47 0.36 0.24 0.26 0.49 0.60 1.22 1.10 0.80 0.95 0.71 0.53 1.17 1.03 0.74 1.18 0.60 0.46 0.43 0.63 0.89 0.75 1.59 2.05 2.80 2.28 1.48 2.42 1.54 1.01 1.33 1.35 1.57 1.11 0.89 0.90 0.77 0.69 0.92 0.91 0.53 0.77 0.47
0.31 0.13 0.34 0.19 0.28 0.60 0.51 0.31 0.15 0.01 0.10 0.11 0.17 0.03 0.12 0.01 0.04 0.04 0.11 0.14 0.10 0.21 0.14 0.25 0.18 0.26 0.31 0.30 0.24 0.20 0.39 0.34 0.76 0.36 0.45 0.50 0.39 0.76 0.61 0.89 0.57 0.70 0.58 0.32 0.27 0.40 0.40 0.36 0.56 0.84 1.14 1.10 1.14 1.18 0.93 0.81 0.86 0.90 1.18 1.08 0.59 0.82 0.81 1.06 1.31 2.64 2.63 2.58 2.23 2.51 1.44 1.56 2.34 1.72 2.32 1.90 1.63 1.79 1.15 0.99 1.13 1.25 1.10 0.89 0.74 0.69
0.23 0.20 0.18 0.23 0.17 0.26 0.13 0.15 0.22 0.04 0.16 0.14 0.20 0.23 0.14 0.09 0.10 0.18 0.03 0.11 0.22 0.09 0.27 0.63 0.29 0.17 0.22 0.20 0.18 0.20 0.20 0.17 0.35 0.24 0.14 0.18 0.44 0.38 0.53 0.62 0.59 0.26 0.42 0.29 0.18 0.15 0.19 0.34 0.34 0.39 0.70 1.21 1.93 1.89 1.42 1.28 1.67 0.87 0.82 1.22 1.05 1.10 0.84 1.02 1.28 2.91 1.39 1.49 2.01 1.63 2.04 1.87 1.95 1.97 1.87 1.67 1.84 2.03 2.04 1.68 1.43 1.25 1.12 1.07 0.75 0.76
0.34 0.32 0.35 0.22 0.40 0.21 0.35 0.27 0.10 0.09 0.07 0.09 0.13 0.14 0.22 0.19 0.16 0.19 0.11 0.08 0.26 0.05 0.39 0.40 0.26 0.16 0.19 0.16 0.13 0.17 0.12 0.19 0.24 0.27 0.22 0.24 0.16 0.07 0.10 0.17 0.29 0.19 0.18 0.29 0.14 0.20 0.32 0.13 0.21 0.40 0.78 0.75 1.07 0.80 0.72 0.65 0.77 1.22 1.11 0.89 0.61 0.84 0.93 0.73 0.97 1.36 1.83 1.65 1.53 1.45 1.80 1.89 1.94 1.61 1.48 1.88 2.28 2.33 2.25 1.95 1.53 1.19 1.06 0.72 0.70 0.98
0.09 0.27 0.44 0.29 0.32 0.34 0.23 0.15 0.19 0.12 0.10 0.17 0.10 0.11 0.18 0.12 0.12 0.12 0.10 0.06 0.10 0.20 0.15 0.26 0.04 0.10 0.20 0.24 0.12 0.13 0.11 0.19 0.28 0.22 0.22 0.11 0.09 0.26 0.09 0.10 0.08 0.23 0.11 0.10 0.20 0.23 0.17 0.15 0.29 0.43 0.39 0.30 0.32 0.62 0.58 0.47 0.57 0.96 1.01 1.15 0.61 0.74 0.95 0.92 0.98 1.35 1.75 1.13 0.79 1.00 1.59 1.29 1.32 1.64 1.40 2.60 2.00 1.38 1.56 1.44 1.29 0.90 0.91 1.02 0.80 0.57
0.13 0.21 0.07 0.38 0.52 0.34 0.52 0.30 0.22 0.25 0.22 0.26 0.07 0.04 0.05 0.10 0.30 0.12 0.34 0.39 0.12 0.16 0.40 0.41 0.12 0.15 0.32 0.17 0.14 0.12 0.10 0.15 0.63 0.50 0.41 0.21 0.08 0.23 0.18 0.04 0.04 0.06 0.12 0.11 0.10 0.29 0.28 0.09 0.12 0.14 0.21 0.35 0.48 0.48 0.50 0.65 0.76 0.78 0.91 0.74 0.97 1.07 0.91 1.19 1.67 1.56 0.97 1.36 0.94 1.26 1.46 1.82 2.61 1.73 2.80 2.35 1.59 1.41 1.80 1.07 1.13 0.92 0.46 0.52 0.38 0.44
0.13 0.41 0.15 0.25 0.43 0.48 0.23 0.55 0.59 0.67 0.56 0.35 0.21 0.31 0.18 0.23 0.18 0.10 0.07 0.16 0.26 0.42 0.48 0.41 0.24 0.19 0.49 0.29 0.37 0.13 0.09 0.09 0.12 0.20 0.21 0.06 0.06 0.09 0.06 0.13 0.07 0.33 0.43 0.77 0.64 0.35 0.15 0.08 0.18 0.10 0.13 0.41 0.54 0.43 0.49 0.75 0.78 1.33 1.37 0.92 0.97 0.94 0.97 0.93 1.10 1.30 1.59 1.26 1.03 1.37 1.81 1.71 2.33 1.50 1.77 1.87 1.73 1.23 1.64 1.45 1.13 1.00 0.90 0.59 0.86 0.97
0.41 0.32 0.28 0.58 0.37 0.62 0.49 0.51 0.36 0.38 0.39 0.44 0.37 0.36 0.24 0.27 0.09 0.23 0.14 0.14 0.24 0.42 0.42 0.55 0.40 0.28 0.24 0.16 0.09 0.21 0.09 0.12 0.20 0.08 0.11 0.09 0.07 0.06 0.07 0.07 0.09 0.08 0.07 0.12 0.53 0.59 0.39 0.43 0.50 0.41 0.36 0.18 0.65 0.45 0.48 0.51 0.67 0.62 0.77 0.84 1.01 0.92 1.36 1.44 1.20 1.58 0.91 0.93 1.04 1.46 1.19 1.76 1.64 1.31 1.39 1.28 1.64 1.35 1.19 1.18 0.81 1.27 1.77 1.30 0.74 0.90
0.53 0.41 0.34 0.50 0.65 0.77 0.42 0.73 0.35 0.33 0.54 0.36 0.36 0.27 0.23 0.19 0.12 0.06 0.27 0.12 0.17 0.15 0.34 0.28 0.77 0.34 0.24 0.51 0.50 0.14 0.12 0.15 0.29 0.30 0.12 0.17 0.31 0.28 0.19 0.17 0.21 0.45 0.26 0.62 0.57 0.82 0.79 0.84 1.26 0.85 1.09 0.61 0.54 0.29 0.47 0.67 0.59 0.88 0.87 0.88 0.92 0.85 0.89 1.13 0.95 1.04 1.06 0.81 0.96 1.25 1.08 1.14 1.05 1.21 1.66 1.74 1.18 1.27 1.01 1.28 1.15 1.18 1.42 1.40 1.30 0.90
0.12 0.26 0.22 0.26 0.37 0.39 0.66 0.62 0.53 0.85 0.46 0.28 0.26 0.18 0.17 0.19 0.15 0.09 0.20 0.08 0.07 0.08 0.13 0.20 0.29 0.43 0.28 0.40 0.38 0.69 0.50 0.58 0.23 0.67 0.34 0.21 0.21 0.43 0.58 0.48 0.49 0.63 0.68 0.77 0.48 0.41 0.75 1.36 1.05 0.48 1.13 0.51 0.69 0.79 0.46 0.72 0.62 0.63 0.55 0.91 1.25 0.98 0.98 1.00 0.79 0.66 0.79 0.91 0.74 1.16 1.19 1.32 0.99 1.11 1.10 1.08 1.18 1.24 1.67 1.35 1.34 1.15 1.22 1.55 1.28 1.02
0.06 0.11 0.14 0.12 0.14 0.18 0.36 0.70 0.66 0.71 0.29 0.54 0.59 0.53 0.24 0.20 0.16 0.18 0.15 0.12 0.09 0.08 0.06 0.06 0.12 0.12 0.36 0.48 0.36 0.42 0.47 0.39 0.42 0.53 0.67 0.57 0.54 0.92 1.10 1.32 1.19 0.89 0.77 0.81 0.84 0.84 0.98 0.91 0.93 1.07 1.01 0.70 0.40 0.44 0.62 0.58 0.91 0.74 0.77 0.77 0.88 0.98 1.18 1.40 1.08 0.69 0.70 0.61 0.90 0.66 1.00 0.96 0.97 0.98 1.11 1.16 1.13 1.40 1.24 1.19 0.98 0.88 0.69 0.60 0.54 0.50
0.22 0.15 0.06 0.23 0.16 0.17 0.29 0.33 0.40 0.74 0.46 0.29 0.29 0.28 0.58 0.32 0.16 0.36 0.20 0.27 0.27 0.20 0.12 0.09 0.21 0.29 0.30 0.22 0.35 0.52 0.46 0.49 0.69 0.69 0.71 1.01 0.95 0.84 0.75 1.10 0.81 0.58 0.78 0.78 0.38 0.31 0.35 0.81 1.06 1.18 1.20 1.12 0.97 0.55 0.66 0.65 0.94 0.81 1.02 1.08 0.88 0.69 0.72 1.10 1.45 1.41 0.87 0.85 0.62 0.62 0.86 1.20 0.83 0.92 0.93 0.99 1.13 1.26 1.26 1.19 1.13 1.03 0.98 0.97 0.66 0.50
0.68 0.15 0.46 0.10 0.24 0.06 0.34 0.34 0.41 0.45 0.47 0.49 0.32 0.46 0.13 0.38 0.19 0.24 0.11 0.28 0.35 0.34 0.21 0.12 0.12 0.28 0.36 0.49 0.57 0.33 0.42 0.56 0.48 0.41 0.39 0.54 0.58 0.78 0.65 1.11 1.01 0.65 0.60 0.62 0.47 0.68 0.60 0.64 0.57 0.53 0.65 0.98 0.82 0.64 0.53 0.50 0.55 0.70 0.75 0.82 0.93 0.66 0.91 1.03 1.11 1.13 1.16 1.36 1.00 0.89 0.74 0.96 0.92 0.77 1.00 1.09 0.88 1.27 1.17 1.25 1.33 1.24 1.38 1.33 1.02 0.81
0.17 0.33 0.20 0.04 0.19 0.05 0.21 0.30 0.27 0.24 0.33 0.22 0.33 0.20 0.25 0.22 0.35 0.36 0.08 0.27 0.54 0.54 0.29 0.18 0.20 0.20 0.29 0.35 0.39 0.41 0.47 0.54 0.57 0.58 0.54 0.54 0.52 0.51 0.56 0.65 0.58 0.60 0.49 0.64 0.45 0.25 0.18 0.14 0.14 0.14 0.25 0.30 0.36 0.39 0.33 0.31 0.28 0.22 0.25 0.33 0.26 0.31 0.63 0.73 0.85 1.34 1.34 1.00 1.13 1.26 1.19 1.10 1.24 1.04 0.83 1.00 1.03 0.95 1.23 1.21 1.14 1.46 1.33 1.34 1.19 1.01
0.15 0.06 0.23 0.13 0.30 0.14 0.28 0.34 0.56 0.34 0.21 0.15 0.09 0.09 0.06 0.08 0.35 0.45 0.32 0.26 0.40 0.28 0.30 0.35 0.43 0.22 0.17 0.32 0.20 0.28 0.41 0.60 0.54 0.63 0.66 0.70 0.59 0.60 0.59 0.72 0.76 0.66 0.47 0.34 0.31 0.22 0.16 0.11 0.04 0.05 0.07 0.07 0.04 0.07 0.32 0.26 0.16 0.22 0.18 0.18 0.09 0.11 0.19 0.32 0.46 0.52 0.77 1.09 0.97 1.08 1.10 1.39 1.33 1.36 1.24 1.03 1.07 1.09 0.96 1.19 1.32 1.29 1.38 1.48 1.40 1.41
0.27 0.58 0.51 0.58 0.13 0.64 0.23 0.30 0.25 0.17 0.14 0.14 0.09 0.04 0.03 0.06 0.08 0.22 0.32 0.42 0.15 0.26 0.19 0.23 0.26 0.21 0.17 0.36 0.19 0.15 0.26 0.43 0.58 0.87 0.58 0.55 0.47 0.43 0.47 0.48 0.55 0.44 0.38 0.22 0.13 0.10 0.09 0.04 0.07 0.11 0.03 0.01 0.01 0.02 0.05 0.12 0.26 0.18 0.09 0.08 0.08 0.16 0.16 0.11 0.11 0.18 0.23 0.31 0.72 0.99 1.08 1.06 1.20 1.45 1.58 1.40 1.28 1.24 1.05 1.15 1.23 1.22 1.22 1.48 1.34 1.42
0.44 0.47 0.39 0.35 0.20 0.28 0.30 0.25 0.37 0.47 0.37 0.14 0.08 0.03 0.12 0.06 0.13 0.22 0.25 0.10 0.13 0.23 0.21 0.16 0.19 0.18 0.21 0.21 0.33 0.16 0.20 0.21 0.40 0.40 0.46 0.47 0.48 0.46 0.38 0.34 0.33 0.27 0.22 0.09 0.06 0.05 0.06 0.05 0.06 0.05 0.05 0.01 0.00 0.00 0.00 0.01 0.05 0.11 0.10 0.06 0.05 0.05 0.07 0.08 0.06 0.06 0.09 0.10 0.15 0.24 0.70 0.90 1.06 1.11 1.27 1.29 1.22 1.25 1.03 1.04 1.28 1.35 1.24 1.28 1.28 1.39
0.26 0.13 0.26 0.29 0.42 0.15 0.26 0.28 0.34 0.39 0.89 0.03 0.16 0.07 0.27 0.06 0.22 0.09 0.05 0.09 0.08 0.34 0.29 0.22 0.15 0.19 0.15 0.49 0.37 0.36 0.29 0.28 0.29 0.31 0.31 0.33 0.38 0.36 0.30 0.26 0.23 0.25 0.16 0.08 0.04 0.02 0.02 0.03 0.03 0.03 0.03 0.03 0.03 0.02 0.01 0.01 0.01 0.01 0.02 0.05 0.08 0.08 0.08 0.10 0.05 0.04 0.04 0.06 0.07 0.11 0.14 0.24 0.54 0.94 1.18 1.35 1.21 1.17 1.23 1.09 1.10 1.14 1.20 1.29 1.31 1.20
0.18 0.25 0.21 0.20 0.31 0.29 0.15 0.20 0.44 0.46 0.33 0.15 0.07 0.15 0.42 0.12 0.09 0.05 0.05 0.08 0.11 0.20 0.35 0.41 0.33 0.21 0.12 0.20 0.31 0.44 0.38 0.31 0.30 0.23 0.15 0.13 0.13 0.17 0.19 0.18 0.17 0.14 0.13 0.07 0.04 0.03 0.02 0.02 0.01 0.02 0.01 0.01 0.02 0.03 0.02 0.03 0.02 0.04 0.03 0.02 0.02 0.03 0.07 0.10 0.16 0.14 0.09 0.07 0.06 0.04 0.06 0.07 0.12 0.21 0.35 0.68 1.14 1.33 1.21 1.09 0.97 1.00 0.94 0.92 1.07 1.19
0.16 0.10 0.08 0.16 0.23 0.31 0.24 0.28 0.28 0.26 0.17 0.10 0.13 0.13 0.20 0.16 0.12 0.13 0.13 0.12 0.10 0.11 0.19 0.27 0.39 0.37 0.18 0.18 0.20 0.36 0.39 0.32 0.25 0.16 0.11 0.09 0.05 0.05 0.08 0.11 0.17 0.12 0.09 0.06 0.04 0.02 0.02 0.02 0.01 0.01 0.02 0.01 0.02 0.02 0.02 0.03 0.03 0.06 0.07 0.06 0.04 0.03 0.02 0.05 0.08 0.12 0.19 0.17 0.12 0.09 0.05 0.04 0.13 0.11 0.23 0.17 0.23 0.48 0.90 1.13 1.16 0.98 0.96 0.85 0.88 0.91
0.05 0.05 0.04 0.09 0.11 0.17 0.20 0.30 0.31 0.20 0.18 0.14 0.11 0.13 0.15 0.16 0.12 0.13 0.12 0.21 0.18 0.20 0.16 0.26 0.29 0.23 0.14 0.12 0.13 0.21 0.33 0.27 0.15 0.07 0.07 0.08 0.09 0.08 0.07 0.06 0.07 0.09 0.09 0.09 0.08 0.06 0.05 0.04 0.02 0.02 0.02 0.01 0.01 0.01 0.01 0.02 0.01 0.02 0.04 0.05 0.04 0.05 0.05 0.06 0.07 0.10 0.12 0.13 0.13 0.14 0.14 0.10 0.07 0.11 0.15 0.11 0.30 0.18 0.23 0.43 0.70 1.03 1.29 1.02 0.97 1.00
0.12 0.07 0.09 0.11 0.13 0.21 0.35 0.34 0.09 0.12 0.11 0.07 0.09 0.12 0.06 0.03 0.04 0.04 0.07 0.11 0.12 0.11 0.13 0.13 0.20 0.20 0.18 0.16 0.15 0.16 0.20 0.20 0.17 0.12 0.09 0.10 0.10 0.10 0.11 0.11 0.09 0.08 0.07 0.08 0.09 0.08 0.08 0.07 0.05 0.04 0.03 0.02 0.01 0.02 0.02 0.02 0.01 0.01 0.01 0.00 0.00 0.01 0.03 0.04 0.08 0.10 0.12 0.11 0.09 0.08 0.09 0.13 0.13 0.10 0.14 0.26 0.18 0.21 0.16 0.21 0.36 0.40 0.54 1.03 0.95 1.34
0.06 0.04 0.05 0.07 0.14 0.14 0.29 0.19 0.04 0.04 0.01 0.01 0.01 0.04 0.04 0.03 0.03 0.01 0.01 0.02 0.05 0.10 0.14 0.16 0.14 0.15 0.13 0.14 0.15 0.19 0.21 0.18 0.18 0.16 0.12 0.11 0.11 0.11 0.12 0.13 0.14 0.14 0.13 0.12 0.10 0.08 0.07 0.07 0.07 0.06 0.05 0.04 0.02 0.01 0.01 0.01 0.02 0.02 0.02 0.02 0.02 0.01 0.01 0.01 0.01 0.03 0.05 0.05 0.05 0.06 0.07 0.09 0.10 0.13 0.13 0.11 0.12 0.17 0.17 0.31 0.24 0.30 0.26 0.31 0.43 0.58
0.00 0.01 0.03 0.05 0.07 0.12 0.09 0.07 0.01 0.04 0.01 0.00 0.01 0.02 0.03 0.00 0.00 0.01 0.02 0.03 0.02 0.04 0.05 0.08 0.11 0.16 0.17 0.16 0.14 0.16 0.21 0.22 0.20 0.18 0.16 0.13 0.12 0.11 0.10 0.09 0.09 0.11 0.13 0.15 0.14 0.12 0.10 0.08 0.06 0.05 0.05 0.04 0.02 0.02 0.02 0.02 0.00 0.01 0.00 0.01 0.02 0.02 0.03 0.03 0.02 0.01 0.01 0.02 0.02 0.04 0.04 0.04 0.05 0.07 0.08 0.11 0.09 0.08 0.14 0.25 0.16 0.19 0.22 0.34 0.36 0.46
0.02 0.04 0.02 0.02 0.09 0.10 0.20 0.09 0.03 0.16 0.08 0.06 0.01 0.02 0.03 0.03 0.04 0.07 0.04 0.02 0.03 0.04 0.06 0.08 0.10 0.10 0.11 0.13 0.17 0.19 0.23 0.22 0.18 0.18 0.18 0.12 0.11 0.09 0.08 0.07 0.08 0.08 0.08 0.07 0.08 0.08 0.08 0.08 0.06 0.06 0.07 0.05 0.08 0.02 0.02 0.01 0.00 0.02 0.01 0.00 0.00 0.00 0.01 0.01 0.01 0.03 0.03 0.04 0.02 0.02 0.02 0.03 0.03 0.08 0.22 0.08 0.06 0.08 0.05 0.04 0.06 0.11 0.09 0.30 0.18 0.19
0.09 0.05 0.05 0.06 0.08 0.12 0.04 0.02 0.04 0.09 0.08 0.04 0.04 0.02 0.01 0.01 0.03 0.03 0.03 0.04 0.05 0.05 0.11 0.07 0.08 0.05 0.05 0.08 0.06 0.05 0.04 0.05 0.09 0.10 0.12 0.11 0.06 0.09 0.07 0.11 0.10 0.10 0.08 0.06 0.08 0.10 0.11 0.09 0.07 0.05 0.04 0.03 0.02 0.02 0.02 0.02 0.00 0.01 0.01 0.01 0.01 0.01 0.01 0.00 0.01 0.01 0.01 0.01 0.03 0.03 0.03 0.03 0.02 0.03 0.03 0.05 0.05 0.05 0.07 0.10 0.05 0.03 0.03 0.07 0.08 0.10